User: anonymous   Login
Location: Berg
(47.2344°N, 9.5296°E)
Time: 03:00:59
(UTC+00:00)
Language:

Cosmos 1939 Rocket - Orbit

View from above orbital plane
View from above orbital plane
View from above satellite
View from above satellite

Ground track
Ground track

The orbit data is extracted from the following two-line orbital elements,

1 19046U 88032B   21102.49239049  .00000056  00000-0  85118-5 0  9996
2 19046  97.3924 116.0560 0034580 267.2753  92.4515 15.02907049781871
Epoch (UTC): 12 April 2021 11:49:02
Eccentricity: 0.0034580
inclination: 97.3924°
perigee height: 534 km
apogee height: 582 km
right ascension of ascending node: 116.0560°
argument of perigee: 267.2753°
revolutions per day: 15.02907049
mean anomaly at epoch: 92.4515°
orbit number at epoch: 78187

The dashed part of the orbit path shows where the satellite is in the earth's shadow,  

DLR